User: anonymous   Login
Location: Unspecified
(0.0000°N, 0.0000°E)
Time: 13:46:53
(UTC+00:00)
Language:

Tianhe-1 - Orbit

View from above orbital plane
View from above orbital plane
View from above satellite
View from above satellite

Ground track
Ground track

The orbit data is extracted from the following two-line orbital elements,

1 48274U 21035A   21167.11176508  .00003763  00000-0  45007-4 0  9991
2 48274  41.4707 289.6789 0008959 293.0084 240.8494 15.62393447  7525
Epoch (UTC): 16 June 2021 02:40:56
Eccentricity: 0.0008959
inclination: 41.4707°
perigee height: 374 km
apogee height: 387 km
right ascension of ascending node: 289.6789°
argument of perigee: 293.0084°
revolutions per day: 15.62393447
mean anomaly at epoch: 240.8494°
orbit number at epoch: 752

The dashed part of the orbit path shows where the satellite is in the earth's shadow,  

DLR